Location: Newark
(53.3469°N, 7.1606°E)
Time: 05:46:06
(UTC+00:00)

N. Korean satellite - Pass Details

Date: 19 November 2019
Orbit: 455 x 506 km, 97.2° (Epoch: 12 December)

Event Time Altitude Azimuth Distance (km) Brightness Sun altitude
Rises 04:31:45 0° 25° (NNE) 2,625 10.6 -22.1°
Reaches altitude 10° 04:34:21 10° 44° (NE) 1,729 9.9 -21.7°
Maximum altitude 04:37:03 19° 90° (E) 1,264 9.6 -21.3°
Drops below altitude 10° 04:39:42 10° 137° (SE) 1,706 10.0 -20.9°
Sets 04:42:14 0° 156° (SSE) 2,574 10.6 -20.5°
